AVA1408 SABE-SCEL

Flight info

Callsign AVA1408
Flight time 1h 48m
Altitude 38000
Route PAL9 NEPIS DCT NIN UL405 TOSOR UT687 UMKAL UMKAL7C
Aircraft A20N/M-SDE2E3FGHIRWXY/LB1

Departure

Time 2026-05-08 00:57
Airport Aeroparque Jorge Newbery (SABE)

Arrival

Time 2026-05-08 02:45
Airport Comodoro Arturo Merino Benítez International Airport (SCEL)
Time Latitude Longitude Altitude Speed Heading
2026-05-08 00:19 -34.55731 -58.41362 26 ft 0 kts 27°
2026-05-08 00:43 -34.55734 -58.41364 30 ft 2 kts 27°
2026-05-08 00:43 -34.55749 -58.41373 27 ft 2 kts 28°
2026-05-08 00:44 -34.55763 -58.41384 29 ft 2 kts 37°
2026-05-08 00:44 -34.55773 -58.41396 32 ft 0 kts 147°
2026-05-08 00:45 -34.55767 -58.41401 32 ft 2 kts 125°
2026-05-08 00:45 -34.55764 -58.41395 32 ft 2 kts 88°
2026-05-08 00:45 -34.55755 -58.41377 28 ft 3 kts 46°
2026-05-08 00:45 -34.55752 -58.41374 27 ft 3 kts 34°
2026-05-08 00:46 -34.55743 -58.41368 29 ft 0 kts 30°
2026-05-08 00:46 -34.55765 -58.41383 29 ft 4 kts 69°
2026-05-08 00:46 -34.55766 -58.41397 32 ft 0 kts 132°
2026-05-08 00:47 -34.55761 -58.41404 30 ft 2 kts 72°
2026-05-08 00:47 -34.55773 -58.41409 32 ft 2 kts 303°
2026-05-08 00:47 -34.55779 -58.41390 28 ft 3 kts 288°
2026-05-08 00:47 -34.55784 -58.41371 27 ft 0 kts 308°
2026-05-08 00:51 -34.55783 -58.41374 27 ft 2 kts 308°
2026-05-08 00:51 -34.55761 -58.41413 30 ft 10 kts 303°
2026-05-08 00:51 -34.55718 -58.41512 26 ft 15 kts 275°
2026-05-08 00:51 -34.55780 -58.41590 30 ft 11 kts 182°
2026-05-08 00:52 -34.55823 -58.41528 28 ft 11 kts 116°
2026-05-08 00:52 -34.55863 -58.41432 28 ft 14 kts 116°
2026-05-08 00:52 -34.55909 -58.41322 29 ft 16 kts 119°
2026-05-08 00:52 -34.55975 -58.41204 25 ft 18 kts 127°
2026-05-08 00:53 -34.56056 -58.41077 27 ft 20 kts 127°
2026-05-08 00:53 -34.56139 -58.40945 25 ft 16 kts 114°
2026-05-08 00:53 -34.56166 -58.40827 27 ft 11 kts 121°
2026-05-08 00:53 -34.56214 -58.40739 26 ft 14 kts 123°
2026-05-08 00:54 -34.56273 -58.40640 26 ft 15 kts 127°
2026-05-08 00:54 -34.56334 -58.40541 26 ft 14 kts 127°
2026-05-08 00:54 -34.56386 -58.40473 24 ft 8 kts 138°
2026-05-08 00:54 -34.56435 -58.40429 24 ft 10 kts 147°
2026-05-08 00:55 -34.56499 -58.40405 25 ft 9 kts 191°
2026-05-08 00:55 -34.56537 -58.40426 27 ft 7 kts 216°
2026-05-08 00:55 -34.56551 -58.40462 25 ft 8 kts 266°
2026-05-08 00:55 -34.56501 -58.40549 27 ft 11 kts 311°
2026-05-08 00:56 -34.56445 -58.40638 22 ft 15 kts 304°
2026-05-08 00:56 -34.56293 -58.40911 27 ft 78 kts 303°
2026-05-08 00:56 -34.56027 -58.41389 28 ft 125 kts 304°
2026-05-08 00:56 -34.55437 -58.42449 261 ft 162 kts 304°
2026-05-08 00:57 -34.54765 -58.43647 781 ft 185 kts 304°
2026-05-08 00:57 -34.53816 -58.44579 1790 ft 167 kts
2026-05-08 00:57 -34.52511 -58.44242 1731 ft 220 kts 19°
2026-05-08 00:57 -34.51118 -58.43597 2575 ft 229 kts 26°
2026-05-08 00:58 -34.49893 -58.42298 3051 ft 241 kts 53°
2026-05-08 00:58 -34.48917 -58.40640 3713 ft 246 kts 52°
2026-05-08 00:58 -34.47782 -58.38932 2575 ft 279 kts 46°
2026-05-08 00:58 -34.46573 -58.37527 3862 ft 222 kts 38°
2026-05-08 00:59 -34.46570 -58.37524 3864 ft 222 kts 38°
2026-05-08 01:00 -34.45330 -58.36478 4829 ft 221 kts 31°
2026-05-08 01:00 -34.43886 -58.35699 5309 ft 244 kts 16°
2026-05-08 01:00 -34.42257 -58.34804 5776 ft 266 kts 34°
2026-05-08 01:00 -34.40867 -58.33265 6322 ft 276 kts 50°
2026-05-08 01:01 -34.39867 -58.31229 5630 ft 294 kts 76°
2026-05-08 01:01 -34.39638 -58.28954 6525 ft 232 kts 98°
2026-05-08 01:01 -34.40187 -58.27124 7217 ft 254 kts 123°
2026-05-08 01:01 -34.41547 -58.25554 6998 ft 281 kts 149°
2026-05-08 01:02 -34.43272 -58.24453 7665 ft 283 kts 158°
2026-05-08 01:02 -34.45137 -58.23654 8123 ft 282 kts 163°
2026-05-08 01:02 -34.47067 -58.23422 8289 ft 282 kts 188°
2026-05-08 01:02 -34.48893 -58.24229 8332 ft 282 kts 214°
2026-05-08 01:03 -34.50226 -58.25918 8333 ft 281 kts 241°
2026-05-08 01:03 -34.50797 -58.28165 8338 ft 280 kts 267°
2026-05-08 01:03 -34.50717 -58.30533 8331 ft 281 kts 276°
2026-05-08 01:03 -34.50531 -58.32876 8330 ft 280 kts 274°
2026-05-08 01:04 -34.50443 -58.35217 8330 ft 280 kts 271°
2026-05-08 01:04 -34.50467 -58.37602 8331 ft 280 kts 268°
2026-05-08 01:04 -34.50565 -58.39979 8331 ft 280 kts 266°
2026-05-08 01:04 -34.50696 -58.42338 8338 ft 280 kts 266°
2026-05-08 01:05 -34.50839 -58.44695 8340 ft 280 kts 266°
2026-05-08 01:05 -34.50984 -58.47067 8345 ft 281 kts 266°
2026-05-08 01:05 -34.51126 -58.49429 8564 ft 284 kts 266°
2026-05-08 01:05 -34.51269 -58.51836 9391 ft 284 kts 266°
2026-05-08 01:06 -34.51411 -58.54245 10295 ft 286 kts 266°
2026-05-08 01:06 -34.51552 -58.56667 11115 ft 290 kts 266°
2026-05-08 01:06 -34.51693 -58.59092 11907 ft 294 kts 266°
2026-05-08 01:06 -34.51839 -58.61611 12695 ft 297 kts 266°
2026-05-08 01:07 -34.51982 -58.64096 13442 ft 301 kts 266°
2026-05-08 01:07 -34.52131 -58.66694 13955 ft 315 kts 266°
2026-05-08 01:07 -34.52287 -58.69422 14161 ft 337 kts 266°
2026-05-08 01:07 -34.52453 -58.72336 14369 ft 357 kts 266°
2026-05-08 01:08 -34.52627 -58.75409 14788 ft 368 kts 266°
2026-05-08 01:08 -34.52802 -58.78507 15469 ft 371 kts 266°
2026-05-08 01:08 -34.52978 -58.81640 16129 ft 375 kts 266°
2026-05-08 01:08 -34.53157 -58.84847 16777 ft 379 kts 266°
2026-05-08 01:09 -34.53334 -58.88029 17401 ft 382 kts 266°
2026-05-08 01:09 -34.53513 -58.91273 18014 ft 386 kts 266°
2026-05-08 01:09 -34.53692 -58.94511 18606 ft 389 kts 266°
2026-05-08 01:09 -34.53873 -58.97814 19197 ft 393 kts 266°
2026-05-08 01:10 -34.54053 -59.01116 19767 ft 396 kts 266°
2026-05-08 01:10 -34.54236 -59.04478 20329 ft 400 kts 266°
2026-05-08 01:10 -34.54419 -59.07845 20873 ft 403 kts 266°
2026-05-08 01:10 -34.54603 -59.11261 21406 ft 406 kts 266°
2026-05-08 01:11 -34.54786 -59.14673 21923 ft 410 kts 266°
2026-05-08 01:11 -34.54971 -59.18154 22433 ft 413 kts 266°
2026-05-08 01:11 -34.55156 -59.21662 22931 ft 416 kts 266°
2026-05-08 01:11 -34.55340 -59.25181 23416 ft 419 kts 266°
2026-05-08 01:12 -34.55524 -59.28704 23887 ft 422 kts 266°
2026-05-08 01:12 -34.55709 -59.32260 24347 ft 425 kts 266°
2026-05-08 01:12 -34.55895 -59.35872 24796 ft 428 kts 266°
2026-05-08 01:12 -34.56080 -59.39477 25229 ft 431 kts 266°
2026-05-08 01:13 -34.56267 -59.43130 25648 ft 434 kts 266°
2026-05-08 01:13 -34.56454 -59.46813 26042 ft 437 kts 266°
2026-05-08 01:13 -34.56638 -59.50480 26441 ft 439 kts 266°
2026-05-08 01:13 -34.56825 -59.54212 26820 ft 442 kts 266°
2026-05-08 01:14 -34.57010 -59.57919 27185 ft 444 kts 266°
2026-05-08 01:14 -34.57094 -59.61655 27533 ft 447 kts 271°
2026-05-08 01:14 -34.57010 -59.65464 27889 ft 449 kts 271°
2026-05-08 01:14 -34.56944 -59.69166 28737 ft 435 kts 271°
2026-05-08 01:15 -34.56884 -59.72772 29875 ft 415 kts 271°
2026-05-08 01:15 -34.56825 -59.76165 30917 ft 399 kts 271°
2026-05-08 01:15 -34.56764 -59.79558 31335 ft 399 kts 271°
2026-05-08 01:15 -34.56702 -59.82909 31554 ft 403 kts 271°
2026-05-08 01:16 -34.56637 -59.86335 31832 ft 405 kts 271°
2026-05-08 01:16 -34.56571 -59.89732 32111 ft 406 kts 271°
2026-05-08 01:16 -34.56503 -59.93184 32368 ft 408 kts 271°
2026-05-08 01:16 -34.56434 -59.96657 32624 ft 410 kts 271°
2026-05-08 01:17 -34.56364 -60.00121 32873 ft 412 kts 271°
2026-05-08 01:17 -34.56293 -60.03561 33111 ft 413 kts 271°
2026-05-08 01:17 -34.56221 -60.07048 33345 ft 415 kts 271°
2026-05-08 01:17 -34.56147 -60.10564 33572 ft 416 kts 271°
2026-05-08 01:18 -34.56072 -60.14090 33796 ft 418 kts 271°
2026-05-08 01:18 -34.55996 -60.17609 34008 ft 419 kts 271°
2026-05-08 01:18 -34.55918 -60.21187 34226 ft 421 kts 271°
2026-05-08 01:18 -34.55840 -60.24698 34424 ft 422 kts 271°
2026-05-08 01:19 -34.55759 -60.28295 34625 ft 424 kts 271°
2026-05-08 01:19 -34.55678 -60.31844 34817 ft 425 kts 271°
2026-05-08 01:19 -34.55595 -60.35435 35009 ft 426 kts 271°
2026-05-08 01:19 -34.55510 -60.39069 35190 ft 428 kts 271°
2026-05-08 01:20 -34.55426 -60.42635 35365 ft 429 kts 271°
2026-05-08 01:20 -34.55338 -60.46285 35540 ft 430 kts 271°
2026-05-08 01:20 -34.55250 -60.49930 35709 ft 431 kts 271°
2026-05-08 01:20 -34.55161 -60.53554 35868 ft 433 kts 271°
2026-05-08 01:21 -34.55071 -60.57171 36026 ft 434 kts 271°
2026-05-08 01:21 -34.54978 -60.60880 36179 ft 435 kts 271°
2026-05-08 01:21 -34.54884 -60.64564 36329 ft 436 kts 272°
2026-05-08 01:21 -34.54789 -60.68276 36456 ft 438 kts 272°
2026-05-08 01:22 -34.54692 -60.71993 36591 ft 439 kts 272°
2026-05-08 01:22 -34.54595 -60.75685 36720 ft 440 kts 272°
2026-05-08 01:22 -34.54496 -60.79366 36845 ft 441 kts 272°
2026-05-08 01:22 -34.54395 -60.83117 36970 ft 442 kts 272°
2026-05-08 01:23 -34.54294 -60.86821 37099 ft 444 kts 272°
2026-05-08 01:23 -34.54190 -60.90600 37207 ft 445 kts 272°
2026-05-08 01:23 -34.53949 -60.94321 37313 ft 446 kts 278°
2026-05-08 01:23 -34.53395 -60.98067 37417 ft 447 kts 281°
2026-05-08 01:24 -34.52817 -61.01756 37526 ft 448 kts 281°
2026-05-08 01:24 -34.52245 -61.05460 37632 ft 449 kts 280°
2026-05-08 01:24 -34.51669 -61.09204 37745 ft 450 kts 280°
2026-05-08 01:25 -34.50521 -61.16633 37948 ft 451 kts 281°
2026-05-08 01:25 -34.49937 -61.20388 38094 ft 451 kts 281°
2026-05-08 01:25 -34.49352 -61.24144 38215 ft 451 kts 281°
2026-05-08 01:26 -34.48182 -61.31627 38333 ft 450 kts 281°
2026-05-08 01:26 -34.47012 -61.39076 38333 ft 450 kts 281°
2026-05-08 01:27 -34.45839 -61.46515 38332 ft 450 kts 281°
2026-05-08 01:27 -34.44660 -61.53961 38332 ft 450 kts 281°
2026-05-08 01:28 -34.43478 -61.61368 38333 ft 450 kts 281°
2026-05-08 01:28 -34.42273 -61.68862 38333 ft 450 kts 281°
2026-05-08 01:29 -34.41079 -61.76269 38333 ft 450 kts 281°
2026-05-08 01:29 -34.39870 -61.83738 38333 ft 450 kts 281°
2026-05-08 01:30 -34.38664 -61.91162 38334 ft 450 kts 281°
2026-05-08 01:30 -34.37456 -61.98565 38334 ft 450 kts 281°
2026-05-08 01:31 -34.36235 -62.06018 38333 ft 450 kts 281°
2026-05-08 01:31 -34.35016 -62.13430 38334 ft 450 kts 281°
2026-05-08 01:32 -34.33989 -62.19645 38333 ft 450 kts 281°
2026-05-08 01:32 -34.32761 -62.27059 38333 ft 450 kts 281°
2026-05-08 01:33 -34.31522 -62.34509 38333 ft 450 kts 281°
2026-05-08 01:33 -34.30287 -62.41906 38333 ft 450 kts 281°
2026-05-08 01:34 -34.29032 -62.49387 38333 ft 450 kts 281°
2026-05-08 01:34 -34.27783 -62.56812 38333 ft 450 kts 281°
2026-05-08 01:35 -34.26528 -62.64238 38334 ft 450 kts 281°
2026-05-08 01:35 -34.25265 -62.71685 38333 ft 450 kts 281°
2026-05-08 01:36 -34.24008 -62.79065 38334 ft 450 kts 281°
2026-05-08 01:36 -34.22738 -62.86493 38333 ft 450 kts 282°
2026-05-08 01:37 -34.21464 -62.93920 38333 ft 450 kts 282°
2026-05-08 01:37 -34.20188 -63.01328 38334 ft 450 kts 282°
2026-05-08 01:38 -34.18906 -63.08743 38334 ft 450 kts 282°
2026-05-08 01:38 -34.17631 -63.16092 38333 ft 450 kts 282°
2026-05-08 01:39 -34.16339 -63.23509 38333 ft 450 kts 282°
2026-05-08 01:39 -34.15046 -63.30905 38333 ft 450 kts 282°
2026-05-08 01:40 -34.13739 -63.38303 38333 ft 450 kts 283°
2026-05-08 01:40 -34.12289 -63.45651 38333 ft 450 kts 283°
2026-05-08 01:41 -34.10818 -63.53002 38333 ft 450 kts 283°
2026-05-08 01:41 -34.09367 -63.60314 38333 ft 450 kts 283°
2026-05-08 01:42 -34.07904 -63.67695 38333 ft 450 kts 283°
2026-05-08 01:42 -34.06451 -63.74999 38334 ft 450 kts 283°
2026-05-08 01:43 -34.04988 -63.82330 38334 ft 450 kts 283°
2026-05-08 01:43 -34.03507 -63.89736 38333 ft 451 kts 283°
2026-05-08 01:44 -34.02040 -63.97071 38334 ft 451 kts 283°
2026-05-08 01:44 -34.00570 -64.04403 38333 ft 451 kts 283°
2026-05-08 01:45 -33.99095 -64.11734 38333 ft 451 kts 283°
2026-05-08 01:45 -33.97613 -64.19073 38334 ft 451 kts 283°
2026-05-08 01:46 -33.96127 -64.26405 38332 ft 451 kts 283°
2026-05-08 01:46 -33.95676 -64.28625 38333 ft 451 kts 283°
2026-05-08 01:47 -33.94490 -64.34455 38334 ft 451 kts 284°
2026-05-08 01:47 -33.93002 -64.41746 38332 ft 451 kts 284°
2026-05-08 01:48 -33.90762 -64.52774 38333 ft 451 kts 282°
2026-05-08 01:48 -33.89551 -64.60233 38334 ft 453 kts 280°
2026-05-08 01:49 -33.88368 -64.67741 38334 ft 459 kts 281°
2026-05-08 01:49 -33.87139 -64.75287 38333 ft 464 kts 281°
2026-05-08 01:50 -33.85873 -64.82938 38333 ft 468 kts 281°
2026-05-08 01:50 -33.84591 -64.90645 38333 ft 471 kts 281°
2026-05-08 01:51 -33.83301 -64.98370 38334 ft 472 kts 281°
2026-05-08 01:51 -33.82006 -65.06098 38334 ft 472 kts 281°
2026-05-08 01:52 -33.80702 -65.13849 38334 ft 472 kts 281°
2026-05-08 01:52 -33.79396 -65.21581 38333 ft 472 kts 281°
2026-05-08 01:53 -33.78083 -65.29321 38333 ft 472 kts 281°
2026-05-08 01:53 -33.76763 -65.37071 38332 ft 472 kts 281°
2026-05-08 01:54 -33.75439 -65.44816 38332 ft 473 kts 281°
2026-05-08 01:54 -33.74120 -65.52503 38334 ft 473 kts 282°
2026-05-08 01:55 -33.72784 -65.60255 38334 ft 473 kts 282°
2026-05-08 01:55 -33.71447 -65.67979 38333 ft 473 kts 282°
2026-05-08 01:56 -33.70104 -65.75716 38334 ft 473 kts 282°
2026-05-08 01:56 -33.68759 -65.83430 38333 ft 473 kts 282°
2026-05-08 01:57 -33.67407 -65.91155 38333 ft 474 kts 282°
2026-05-08 01:57 -33.66046 -65.98897 38333 ft 474 kts 282°
2026-05-08 01:58 -33.64676 -66.06664 38334 ft 474 kts 282°
2026-05-08 01:58 -33.63306 -66.14399 38334 ft 474 kts 282°
2026-05-08 01:59 -33.61925 -66.22171 38334 ft 474 kts 282°
2026-05-08 01:59 -33.60549 -66.29884 38334 ft 474 kts 282°
2026-05-08 02:00 -33.59164 -66.37618 38333 ft 473 kts 282°
2026-05-08 02:00 -33.57775 -66.45340 38334 ft 472 kts 282°
2026-05-08 02:01 -33.56395 -66.52988 38333 ft 472 kts 282°
2026-05-08 02:01 -33.55001 -66.60683 38334 ft 472 kts 282°
2026-05-08 02:02 -33.53599 -66.68396 38334 ft 472 kts 282°
2026-05-08 02:02 -33.52206 -66.76030 38334 ft 472 kts 282°
2026-05-08 02:03 -33.50791 -66.83751 38334 ft 473 kts 282°
2026-05-08 02:03 -33.49378 -66.91438 38333 ft 473 kts 282°
2026-05-08 02:04 -33.47961 -66.99120 38333 ft 473 kts 282°
2026-05-08 02:04 -33.46545 -67.06765 38331 ft 456 kts 282°
2026-05-08 02:05 -33.45194 -67.14030 38334 ft 449 kts 282°
2026-05-08 02:05 -33.43825 -67.21375 38333 ft 453 kts 282°
2026-05-08 02:06 -33.42452 -67.28710 38333 ft 452 kts 282°
2026-05-08 02:06 -33.41072 -67.36060 38332 ft 453 kts 282°
2026-05-08 02:07 -33.39685 -67.43417 38333 ft 453 kts 283°
2026-05-08 02:07 -33.38293 -67.50777 38332 ft 453 kts 283°
2026-05-08 02:08 -33.36904 -67.58100 38333 ft 453 kts 283°
2026-05-08 02:08 -33.35733 -67.64252 38333 ft 453 kts 283°
2026-05-08 02:09 -33.34339 -67.71561 38333 ft 453 kts 283°
2026-05-08 02:09 -33.32934 -67.78912 38333 ft 453 kts 283°
2026-05-08 02:10 -33.31518 -67.86274 38333 ft 453 kts 283°
2026-05-08 02:10 -33.30098 -67.93625 38333 ft 453 kts 283°
2026-05-08 02:11 -33.28680 -68.00958 38333 ft 453 kts 283°
2026-05-08 02:11 -33.27265 -68.08251 38333 ft 453 kts 283°
2026-05-08 02:12 -33.25828 -68.15633 38333 ft 453 kts 283°
2026-05-08 02:12 -33.24391 -68.22991 38333 ft 454 kts 283°
2026-05-08 02:13 -33.22954 -68.30320 38333 ft 454 kts 283°
2026-05-08 02:13 -33.21515 -68.37638 38333 ft 454 kts 283°
2026-05-08 02:14 -33.20068 -68.44975 38333 ft 454 kts 283°
2026-05-08 02:14 -33.18608 -68.52349 38333 ft 454 kts 283°
2026-05-08 02:15 -33.17153 -68.59677 38332 ft 454 kts 283°
2026-05-08 02:15 -33.15696 -68.66978 38333 ft 454 kts 283°
2026-05-08 02:16 -33.14223 -68.74340 38333 ft 455 kts 283°
2026-05-08 02:16 -33.12750 -68.81682 38333 ft 456 kts 283°
2026-05-08 02:17 -33.11265 -68.89054 38333 ft 456 kts 283°
2026-05-08 02:17 -33.09780 -68.96400 38333 ft 456 kts 283°
2026-05-08 02:18 -33.08285 -69.03776 38333 ft 457 kts 283°
2026-05-08 02:18 -33.06788 -69.11137 38333 ft 459 kts 283°
2026-05-08 02:19 -33.05281 -69.18525 38332 ft 460 kts 283°
2026-05-08 02:19 -33.03752 -69.25993 38334 ft 464 kts 283°
2026-05-08 02:20 -33.02214 -69.33482 38333 ft 464 kts 283°
2026-05-08 02:20 -33.00663 -69.41011 37917 ft 472 kts 284°
2026-05-08 02:21 -32.99883 -69.44785 37337 ft 477 kts 284°
2026-05-08 02:21 -32.99088 -69.48628 36888 ft 473 kts 284°
2026-05-08 02:21 -32.98303 -69.52418 36643 ft 463 kts 284°
2026-05-08 02:21 -32.97533 -69.56126 35865 ft 466 kts 284°
2026-05-08 02:22 -32.96764 -69.59826 35520 ft 457 kts 284°
2026-05-08 02:22 -32.95997 -69.63508 34962 ft 454 kts 284°
2026-05-08 02:22 -32.95243 -69.67123 34499 ft 449 kts 284°
2026-05-08 02:22 -32.94496 -69.70699 34160 ft 442 kts 284°
2026-05-08 02:23 -32.93753 -69.74250 33679 ft 438 kts 284°
2026-05-08 02:23 -32.93028 -69.77708 33345 ft 430 kts 284°
2026-05-08 02:23 -32.92303 -69.81164 32780 ft 428 kts 284°
2026-05-08 02:23 -32.91588 -69.84570 32142 ft 429 kts 284°
2026-05-08 02:24 -32.90858 -69.88038 31630 ft 425 kts 284°
2026-05-08 02:24 -32.90148 -69.91408 31140 ft 422 kts 284°
2026-05-08 02:24 -32.89433 -69.94794 30678 ft 418 kts 284°
2026-05-08 02:24 -32.88726 -69.98143 30147 ft 415 kts 284°
2026-05-08 02:25 -32.88174 -70.01502 29511 ft 416 kts 276°
2026-05-08 02:25 -32.87874 -70.04916 29172 ft 408 kts 276°
2026-05-08 02:25 -32.87583 -70.08210 28859 ft 401 kts 276°
2026-05-08 02:25 -32.87284 -70.11518 28314 ft 400 kts 276°
2026-05-08 02:26 -32.86986 -70.14764 27957 ft 393 kts 276°
2026-05-08 02:26 -32.86690 -70.17971 27616 ft 387 kts 276°
2026-05-08 02:26 -32.86396 -70.21150 27064 ft 386 kts 276°
2026-05-08 02:26 -32.86103 -70.24307 26532 ft 386 kts 276°
2026-05-08 02:27 -32.85806 -70.27499 25757 ft 392 kts 276°
2026-05-08 02:27 -32.85503 -70.30749 24702 ft 404 kts 276°
2026-05-08 02:27 -32.85184 -70.34157 23426 ft 421 kts 276°
2026-05-08 02:27 -32.84865 -70.37584 22201 ft 431 kts 276°
2026-05-08 02:28 -32.84530 -70.41176 20694 ft 438 kts 276°
2026-05-08 02:28 -32.84189 -70.44824 19288 ft 441 kts 276°
2026-05-08 02:28 -32.83852 -70.48412 18314 ft 433 kts 276°
2026-05-08 02:28 -32.83568 -70.51433 17843 ft 417 kts 276°
2026-05-08 02:29 -32.83321 -70.54042 17577 ft 400 kts 276°
2026-05-08 02:29 -32.83052 -70.56885 17368 ft 379 kts 276°
2026-05-08 02:29 -32.82826 -70.59271 17203 ft 363 kts 276°
2026-05-08 02:29 -32.82551 -70.62153 17012 ft 343 kts 276°
2026-05-08 02:30 -32.82288 -70.64907 16823 ft 325 kts 276°
2026-05-08 02:30 -32.82077 -70.67545 16332 ft 318 kts 269°
2026-05-08 02:30 -32.82494 -70.70098 15523 ft 320 kts 246°
2026-05-08 02:30 -32.83717 -70.72327 14422 ft 332 kts 227°
2026-05-08 02:31 -32.85434 -70.74292 13006 ft 350 kts 222°
2026-05-08 02:31 -32.87330 -70.76264 11511 ft 368 kts 221°
2026-05-08 02:31 -32.87497 -70.76436 11403 ft 369 kts 221°
2026-05-08 02:35 -32.88358 -70.77329 10950 ft 370 kts 221°
2026-05-08 02:35 -32.90284 -70.79344 10528 ft 352 kts 219°
2026-05-08 02:35 -32.92334 -70.80706 10297 ft 330 kts 197°
2026-05-08 02:35 -32.94550 -70.81018 10121 ft 311 kts 178°
2026-05-08 02:36 -32.96665 -70.80894 9976 ft 299 kts 177°
2026-05-08 02:36 -32.98721 -70.80763 9540 ft 285 kts 177°
2026-05-08 02:36 -33.00695 -70.80643 8900 ft 290 kts 177°
2026-05-08 02:36 -33.02685 -70.80529 8252 ft 284 kts 178°
2026-05-08 02:37 -33.04650 -70.80421 7617 ft 279 kts 178°
2026-05-08 02:37 -33.06589 -70.80316 7065 ft 272 kts 178°
2026-05-08 02:37 -33.08383 -70.80220 6873 ft 248 kts 178°
2026-05-08 02:37 -33.10021 -70.80134 6825 ft 220 kts 178°
2026-05-08 02:38 -33.11461 -70.80059 6849 ft 194 kts 178°
2026-05-08 02:38 -33.12748 -70.79993 6711 ft 173 kts 178°
2026-05-08 02:38 -33.13899 -70.79934 6468 ft 162 kts 178°
2026-05-08 02:38 -33.14954 -70.79880 6283 ft 147 kts 178°
2026-05-08 02:39 -33.15976 -70.79829 5918 ft 147 kts 178°
2026-05-08 02:39 -33.16995 -70.79777 5556 ft 147 kts 178°
2026-05-08 02:39 -33.18019 -70.79724 5203 ft 145 kts 178°
2026-05-08 02:39 -33.19025 -70.79672 4868 ft 144 kts 178°
2026-05-08 02:40 -33.20013 -70.79620 4665 ft 142 kts 178°
2026-05-08 02:40 -33.21004 -70.79561 4722 ft 146 kts 178°
2026-05-08 02:40 -33.22005 -70.79502 4725 ft 145 kts 178°
2026-05-08 02:40 -33.23022 -70.79444 4726 ft 145 kts 178°
2026-05-08 02:41 -33.24028 -70.79389 4608 ft 147 kts 178°
2026-05-08 02:41 -33.25048 -70.79336 4358 ft 144 kts 178°
2026-05-08 02:41 -33.26038 -70.79285 4069 ft 143 kts 178°
2026-05-08 02:41 -33.27028 -70.79238 3744 ft 142 kts 178°
2026-05-08 02:42 -33.28024 -70.79192 3464 ft 142 kts 179°
2026-05-08 02:42 -33.28995 -70.79149 3265 ft 141 kts 179°
2026-05-08 02:42 -33.29987 -70.79108 3087 ft 141 kts 179°
2026-05-08 02:42 -33.30961 -70.79069 2896 ft 141 kts 179°
2026-05-08 02:43 -33.31943 -70.79031 2717 ft 140 kts 179°
2026-05-08 02:43 -33.32910 -70.78958 2522 ft 140 kts 176°
2026-05-08 02:43 -33.33889 -70.78877 2340 ft 140 kts 177°
2026-05-08 02:43 -33.34853 -70.78808 2145 ft 139 kts 177°
2026-05-08 02:44 -33.35814 -70.78759 1962 ft 139 kts 179°
2026-05-08 02:44 -33.36782 -70.78723 1752 ft 138 kts 178°
2026-05-08 02:44 -33.37733 -70.78662 1593 ft 138 kts 178°
2026-05-08 02:44 -33.38642 -70.78621 1560 ft 109 kts 178°
2026-05-08 02:45 -33.39095 -70.78644 1561 ft 22 kts 193°
2026-05-08 02:45 -33.39233 -70.78717 1562 ft 22 kts 208°
2026-05-08 02:45 -33.39344 -70.78788 1562 ft 17 kts 209°
2026-05-08 02:45 -33.39416 -70.78838 1562 ft 10 kts 210°
2026-05-08 02:46 -33.39481 -70.78889 1562 ft 12 kts 228°
2026-05-08 02:46 -33.39496 -70.78993 1562 ft 14 kts 265°
2026-05-08 02:46 -33.39501 -70.79057 1562 ft 0 kts 257°
2026-05-08 02:47 -33.39505 -70.79066 1562 ft 1 kts 235°
2026-05-08 02:47 -33.39512 -70.79065 1562 ft 2 kts 188°
2026-05-08 02:47 -33.39534 -70.79062 1562 ft 5 kts 174°
2026-05-08 02:47 -33.39553 -70.79062 1562 ft 0 kts 179°